Location: Banios
(43.0451°N, 0.2335°E)
Time: 08:21:36
(UTC+00:00)

A-11 Canister half - Pass Details

Date: 13 May 2021
Orbit: 1527 x 1681 km, 47.3° (Epoch: 22 June)

Event Time Altitude Azimuth Distance (km) Brightness Sun altitude
Rises 11:09:22 0° 266° (W) 4,755 11.5 63.6°
Reaches altitude 10° 11:12:27 10° 269° (W) 3,791 11.1 63.8°
Maximum altitude 11:22:07 71° 353° (N) 1,704 10.1 64.5°
Drops below altitude 10° 11:32:08 10° 77° (ENE) 3,912 11.3 65.0°
Sets 11:35:22 0° 80° (E) 4,913 11.7 65.1°
